This demonstration page uses our WeatherBlox Daily Observations layout. Learn more.

39.92423, -83.80882

Hourly Observations for July 29, 2016

Temp ( °F °C ) Dew Point ( °F °C ) Humidity (%) Winds ( mph kmh ) Pressure ( in mb ) Visibility ( mi km ) Precip ( " mm )
12:56 am 00:56 Clear 71 21.7 68 20 90 90 S 5 7 29.91 1013 10 16.0934 0 0
1:56 am 01:56 Clear 69 20.6 68 20 96 96 WSW 7 11 29.91 1013 10 16.0934 0 0
2:56 am 02:56 Clear with Mist and Fog 69 20.6 68 20 96 96 Calm 29.91 1013 6 9.65604 0 0
3:56 am 03:56 Clear with Mist and Fog 69 20.6 68 20 96 96 SW 5 7 29.9 1013 6 9.65604 0 0
4:56 am 04:56 Clear with Mist and Fog 69 20.6 68 20 96 96 Calm 29.9 1013 4 6.43736 0 0
5:50 am 05:50 Clear with Mist and Fog 68 20 68 20 100 100 Calm 29.91 1013 1.75 2.816345 0 0
5:51 am 05:51 Clear with Mist and Fog 68 20 68 20 100 100 Calm 29.91 1013 1.75 2.816345 0 0
6:15 am 06:15 Clear with Mist and Fog 66 19 66 19 100 100 Calm 29.91 1013 1 1.60934 0 0
6:19 am 06:19 Clear with Fog 66 19 66 19 100 100 Calm 29.91 1013 0.5 0.80467 0 0
6:25 am 06:25 Mostly Cloudy with Fog 66 19 66 19 100 100 Calm N/A 0.25 0.402335 0 0
6:56 am 06:56 Cloudy with Fog 65 18.3 65 18.3 100 100 Calm N/A 0.25 0.402335 0 0
7:18 am 07:18 Cloudy with Fog 66 19 66 19 100 100 Calm 29.94 1014 0.25 0.402335 0 0
7:32 am 07:32 Cloudy with Mist and Fog 66 19 66 19 100 100 ESE 3 6 29.94 1014 0.75 1.207005 0 0
7:34 am 07:34 Cloudy with Mist and Fog 66 19 66 19 100 100 SE 3 6 29.94 1014 1.25 2.011675 0 0
7:49 am 07:49 Partly Cloudy with Mist and Fog 70 21 70 21 100 100 Calm 29.94 1014 2 3.21868 0 0
7:56 am 07:56 Partly Cloudy with Mist and Fog 70 21.1 69 20.6 97 97 Calm N/A 3 4.82802 0 0
8:56 am 08:56 Sunny 73 22.8 71 21.7 94 94 Calm 29.94 1014 8 12.87472 0 0
9:56 am 09:56 Sunny 77 25 71 21.7 82 82 SSW 5 7 29.93 1014 10 16.0934 0 0
10:56 am 10:56 Sunny 80 26.7 73 22.8 79 79 S 5 7 29.93 1014 10 16.0934 0 0
11:17 am 11:17 Mostly Cloudy 81 27 72 22 74 74 WSW 6 9 29.91 1013 10 16.0934 0 0
11:33 am 11:33 Mostly Cloudy 81 27 72 22 74 74 SSW 5 7 29.91 1013 10 16.0934 0 0
11:56 am 11:56 Partly Cloudy 82 27.8 72 22.2 72 72 SSW 6 9 29.94 1014 10 16.0934 0 0
12:48 pm 12:48 Mostly Cloudy with Light Rain 81 27 72 22 74 74 SW 6 9 29.91 1013 10 16.0934 0 0.0254
12:56 pm 12:56 Cloudy with Heavy Rain 77 25 72 22.2 85 85 WNW 9 15 29.94 1014 8 12.87472 0.05 1.27
1:07 pm 13:07 Cloudy with Rain 75 24 72 22 89 89 Calm 29.94 1014 10 16.0934 0.03 0.762
1:28 pm 13:28 Cloudy with Nearby Thunderstorms 73 23 70 21 89 89 SSE 6 9 29.91 1013 7 11.26538 0.16 4.064
1:43 pm 13:43 Cloudy with Light Rain 79 26 70 21 74 74 ESE 3 6 29.88 1012 10 16.0934 0.19 4.826
1:56 pm 13:56 Mostly Cloudy 81 27.2 70 21.1 69 69 Calm 29.92 1013 10 16.0934 0.19 4.826
2:26 pm 14:26 Cloudy with Thunderstorms 77 25 72 22 83 83 Calm 29.88 1012 10 16.0934 0.03 0.762
2:56 pm 14:56 Cloudy with Light Thunderstorms 73 22.8 69 20.6 87 87 E 8 13 29.92 1013 10 16.0934 0.13 3.302
3:18 pm 15:18 Cloudy with Thunderstorms 73 23 72 22 94 94 E 12 19 29.91 1013 10 16.0934 0.01 0.254
3:44 pm 15:44 Cloudy 73 23 70 21 89 89 ESE 8 13 29.91 1013 10 16.0934 0.01 0.254
3:56 pm 15:56 Cloudy 72 22.2 69 20.6 91 91 E 9 15 29.91 1013 10 16.0934 0.01 0.254
4:06 pm 16:06 Cloudy with Nearby Thunderstorms 72 22 70 21 94 94 E 7 11 29.91 1013 8 12.87472 0 0
4:56 pm 16:56 Cloudy with Light Thunderstorms 72 22.2 70 21.1 94 94 Calm 29.91 1013 10 16.0934 0.07 1.778
5:42 pm 17:42 Cloudy with Light Rain 72 22 70 21 94 94 SSW 6 9 29.91 1013 10 16.0934 0.02 0.508
5:56 pm 17:56 Cloudy with Light Rain 71 21.7 69 20.6 94 94 S 7 11 29.91 1013 10 16.0934 0.03 0.762
6:56 pm 18:56 Cloudy with Light Rain 69 20.6 66 18.9 90 90 SW 9 15 29.92 1013 10 16.0934 0.04 1.016
7:08 pm 19:08 Cloudy with Nearby Thunderstorms 70 21 66 19 88 88 WSW 8 13 N/A 10 16.0934 0.04 1.016
7:24 pm 19:24 Cloudy with Light Rain 70 21 66 19 88 88 WSW 5 7 29.91 1013 10 16.0934 0.04 1.016
7:56 pm 19:56 Cloudy 69 20.6 68 20 96 96 WNW 5 7 N/A 10 16.0934 0.04 1.016
8:56 pm 20:56 Mostly Clear with Light Rain 69 20.6 68 20 96 96 E 3 6 29.92 1013 10 16.0934 0.03 0.762
9:56 pm 21:56 Mostly Cloudy 69 20.6 68 20 96 96 ESE 3 6 29.93 1014 9 14.48406 0 0.0254
10:56 pm 22:56 Mostly Cloudy 69 20.6 68 20 96 96 undefined N/A N/A 10 16.0934 0 0
11:56 pm 23:56 Mostly Cloudy 69 20.6 68 20 96 96 undefined N/A N/A 9 14.48406 0 0

Powered by AerisWeather